Weather in La Thuile

Italy     45°42′58″N   6°56′52″E
В апреле 2022 года жителям России запретили посещать сайт meteo.paraplan.net по решению Генеральной прокуратуры. Аудитория сайта уменьшилась в 10 раз. Владельцы сайта не видят смысла в поддержке погодного сервера в таких условиях. Сайт будет закрыт в октябре.
temp.,
°C
wind,
m/s
gust,
m/s
humid.,
%
clouds,
%
prec.,
mm/h
press.,
hPa
HPBL,
m
30 september, fri
fri3023:000wnw2290100 0.0 100647
02:00−1wnw2289100 0.1 100748
05:00−1nnw1186100 0.0 100612
08:000ne1184100 0.0 100713
11:00+3e2268100 0.0 1007564
14:00+5e2170100 0.3 1008898
17:00+5e117579 0.3 1009629
20:00+2ese019249 0.4 101330
1 october, sat
sat123:000ese119971 0.0 101728
02:000w229436 0.0 101878
05:00−1w229472 0.0 101930
08:000w3392100 0.0 101955
11:00+6w345898 0.0 1018511
14:00+2wsw4487100 1.1 1022365
17:00+3w3496100 3.0 1020176
20:00+4w4597100 7.8 1022185
2 october, sun
sun223:00+5w3498100 3.1 1023164
02:00+5w3498100 7.6 1024157
05:00+5w4497100 2.4 1025156
08:00+6w349795 2.7 1026168
11:00+8w238123 0.0 1026564
14:00+12w33591 0.1 10241204
17:00+12w33602 0.0 10231110
20:00+6wnw33904 0.0 102638
3 october, mon
mon323:00+4wnw33937 0.0 102645
02:00+4wnw33846 0.0 102534
05:00+3wnw33725 0.0 102429
08:00+4wnw33645 0.0 102328
11:00+10wnw23430 0.0 1021558
14:00+13wnw33400 0.0 10201244
17:00+12wnw22500 0.0 10201092
20:00+6nw22835 0.0 102215
4 october, tue
tue423:00+4ne018685 0.0 102310
02:00+3ene1189100 0.0 102310
05:00+2nne0190100 0.0 102210
08:00+3wnw1179100 0.0 102210
11:00+10wsw1141100 0.0 1020338
14:00+14wsw1231100 0.0 1019904
17:00+13w223815 0.0 1019801
20:00+6wnw22695 0.0 102218